Погода в Мусультемахах

Россия / Республика Дагестан     42°21′44″N   47°11′20″E
темп.,
°C
ветер,
м/с
пор.,
м/с
влажн.,
%
обл.,
%
осадки,
мм/ч
давл.,
гПа
погр.,
м
15 апреля, чт
чт1500:00+1юз21794 0.0 101813
03:00−1ююз22650 0.0 101912
06:00+1ююз22540 0.0 101930
09:00+8сз01330 0.0 1016708
12:00+11ссв243137 0.0 10142089
15:00+11св334394 0.1 10141752
18:00+7всв2269100 0.2 1016516
21:00+5вюв0081100 0.2 101810
16 апреля, пт
пт1600:00+4ю118358 0.0 101811
03:00+3ю2162100 0.0 101911
06:00+3ююв235838 0.0 102040
09:00+9вюв235072 0.0 1018980
12:00+12всв343971 0.0 10161880
15:00+12св234845 0.4 10151399
18:00+9в226614 0.6 1016160
21:00+6юз227439 1.3 101918
17 апреля, сб
сб1700:00+5юз22650 0.0 101916
03:00+4ююз22632 0.0 101913
06:00+5ю2258100 0.0 101822
09:00+12св2236100 0.0 1016797
12:00+14ссв434243 0.0 10161408
15:00+11св4363100 0.0 1017967
18:00+8всв2282100 0.0 1019500
21:00+7в1286100 0.1 1020324
18 апреля, вс
вс1800:00+6всв1190100 0.0 1020315
03:00+5в2288100 0.0 1019101
06:00+5вюв2290100 0.0 1020274
09:00+9св2172100 0.0 1017535
12:00+12ссв3362100 0.0 1015867
15:00+12ссв4267100 0.1 1015892
18:00+8ссв2284100 0.4 1018447
21:00+7ююв1095100 5.4 1019138
19 апреля, пн
пн1900:00+7зсз119399 1.3 101927
03:00+6сз1296100 1.6 1020233
06:00+6сз119598 0.3 1021173
09:00+10ссз337469 0.4 1020727
12:00+12ссв456116 0.3 10191213
15:00+12св336660 0.4 10191035
18:00+9всв1179100 0.1 1021351
21:00+7юв119084 0.1 102135